Regional Weather Roundup
Issued by NWS Sioux Falls, SD

Home | Current Version | Previous Version | Text Only | Print | Product List | Glossary On
Versions: 1 2 3 4 5 6 7 8 9 10 11 12 13 14 15 16 17 18 19 20 21 22 23 24 25 26 27 28 29 30 31 32 33 34 35 36 37 38 39 40 41 42 43 44 45 46 47 48 49 50
000
ASUS43 KFSD 271310
RWRFSD

WEATHER ROUNDUP FOR SE SOUTH DAKOTA/SW MINNESOTA/NW IOWA
NATIONAL WEATHER SERVICE SIOUX FALLS SD
800 AM CDT TUE SEP 27 2016

NOTE: "FAIR" INDICATES FEW OR NO CLOUDS BELOW 12,000 FEET WITH NO
SIGNIFICANT WEATHER AND OR OBSTRUCTIONS TO VISIBILITY.


SDZ038>040-050-052>070-271400-
SOUTHEAST SOUTH DAKOTA

CITY           SKY/WX    TMP DP  RH WIND       PRES   REMARKS
CHAMBERLAIN    CLEAR     46  42  86 W6        30.05S
HURON          CLOUDY    39  35  86 CALM      30.02S
MADISON        FAIR      41  37  87 W9        30.00S
MITCHELL       CLEAR     46  39  76 W7        30.03S
SIOUX FALLS    CLEAR     46  38  73 W6        30.01S
WINNER         FAIR      46  39  76 SW7       30.06F
YANKTON        CLEAR     45  39  81 CALM      30.02S
$$

MNZ071-072-080-081-089-090-097-098-271400-
SOUTHWEST MINNESOTA

CITY           SKY/WX    TMP DP  RH WIND       PRES   REMARKS
FAIRMONT       CLEAR     46  38  73 W12       29.94S
JACKSON        CLEAR     45  36  70 W10       29.96S
LUVERNE        CLEAR     41  34  75 NW6       30.00S
MARSHALL       PTCLDY    44  37  76 W8        29.96S
MONTEVIDEO     CLEAR     45  37  76 NW5       29.95F
PIPESTONE      CLEAR     43  37  81 W6        29.98S
REDWOOD FALLS  CLEAR     44  36  73 W9        29.93S
TRACY          CLEAR     47  38  73 W6        29.96S
WINDOM         CLEAR     43  37  81 W6        29.95S
WORTHINGTON    CLEAR     42  37  82 W10       29.98S
$$

IAZ001>003-012>014-020>022-031-032-NEZ013-014-SDZ071-271400-
NORTHWEST IOWA

CITY           SKY/WX    TMP DP  RH WIND       PRES   REMARKS
CHEROKEE       CLEAR     45  40  82 CALM      30.00F
DENISON        CLEAR     45  43  93 CALM      30.00S
ESTHERVILLE    CLEAR     46  38  73 W9        29.95S
LE MARS        CLEAR     46  41  81 CALM      30.02F
ORANGE CITY    CLEAR     43  37  81 W5        30.00F
SHELDON        CLEAR     43  39  87 CALM      29.99R
SIOUX CITY     CLEAR     47  42  83 CALM      30.03S
SPENCER        CLEAR     44  39  82 W8        29.98F
STORM LAKE     CLEAR     45  39  81 W9        30.00S
$$

ABBREVIATIONS USED IN REMARKS
   TC - TEMPERATURE IN CELSIUS
  WCI - WIND CHILL INDEX
   HX - HEAT INDEX
  VSB - VISIBILITY




USA.gov is the U.S. government's official web portal to all federal, state and local government web resources and services.